This is the latest recevied weather packets stored in our database for station/object N7WSS. If no packets are shown the sender has not sent any weather packets the latest 10 day(s).
| Time | Temp. | Humidity | Pressure | Rain* | Wind** | Luminosity | Snow |
|---|---|---|---|---|---|---|---|
| 1777667545 | 26.67° C | 27% | 1010.2 hPa | 0 mm | - | - | - |
| 1777667242 | 26.67° C | 27% | 1010.4 hPa | 0 mm | - | - | - |
| 1777666939 | 27.22° C | 27% | 1010.4 hPa | 0 mm | - | - | - |
| 1777666635 | 27.22° C | 27% | 1010.3 hPa | 0 mm | - | - | - |
| 1777666332 | 26.67° C | 27% | 1010.4 hPa | 0 mm | - | - | - |
| 1777666029 | 27.22° C | 27% | 1010.5 hPa | 0 mm | - | - | - |
| 1777665726 | 27.22° C | 27% | 1010.5 hPa | 0 mm | - | - | - |
| 1777665424 | 27.22° C | 27% | 1010.6 hPa | 0 mm | - | - | - |
| 1777665119 | 26.67° C | 27% | 1010.6 hPa | 0 mm | - | - | - |
| 1777664815 | 26.67° C | 27% | 1010.6 hPa | 0 mm | - | - | - |
| 1777664510 | 25.56° C | 29% | 1010.6 hPa | 0 mm | - | - | - |
| 1777664208 | 26.67° C | 28% | 1010.8 hPa | 0 mm | - | - | - |
| 1777663907 | 26.67° C | 28% | 1010.8 hPa | 0 mm | - | - | - |
| 1777663603 | 26.11° C | 29% | 1010.8 hPa | 0 mm | - | - | - |
| 1777663301 | 26.11° C | 28% | 1011.1 hPa | 0 mm | - | - | - |
| 1777662998 | 26.11° C | 29% | 1010.9 hPa | 0 mm | - | - | - |
| 1777662695 | 26.11° C | 29% | 1011.3 hPa | 0 mm | - | - | - |
| 1777662391 | 25.56° C | 30% | 1011.3 hPa | 0 mm | - | - | - |
| 1777662086 | 26.11° C | 29% | 1011.2 hPa | 0 mm | - | - | - |
| 1777661783 | 25.56° C | 30% | 1011.4 hPa | 0 mm | - | - | - |
| 1777661478 | 26.11° C | 29% | 1011.5 hPa | 0 mm | - | - | - |
| 1777661175 | 26.11° C | 29% | 1011.4 hPa | 0 mm | - | - | - |
| 1777660870 | 25° C | 29% | 1011.6 hPa | 0 mm | - | - | - |
| 1777660567 | 25.56° C | 29% | 1011.6 hPa | 0 mm | - | - | - |
| 1777660263 | 25.56° C | 30% | 1011.7 hPa | 0 mm | - | - | - |
* Rain latest hour (hover to see other rain measurements)
** Current wind speed in m/s (hover to see current wind gust speed)